Helicity
4 29 47 16 11 13 16 40 36 23 13 5 3 18 32 7 54 73 83 135 137 102 67 56 162 323 294 227 207 152 148 166 226 199 254 220 244 187 207 163 257 258 195 155
21 56 58 10 19 20 14 13 0 -2 -6 3 60 40 10 118 152 84 81 96 87 86 95 141 168 185 196 160 120 135 102 128 218 185 197 160 172 170 206 210 273 309 181 189
14 84 19 13 19 11 -14 27 -8 13 20 38 10 38 69 158 171 103 64 60 87 98 74 115 129 129 180 166 146 82 87 94 182 220 128 198 236 197 255 288 310 279 162 165
60 67 11 4 30 54 -5 54 -5 13 -4 3 17 18 35 108 179 109 106 115 94 95 93 91 96 91 104 134 174 132 50 93 113 235 263 142 262 305 204 162 173 173 212 139
80 43 29 16 86 5 15 -2 50 55 29 27 48 47 80 91 107 121 143 206 155 127 142 128 116 120 131 126 162 190 143 108 113 144 275 351 279 281 248 226 232 232 255 302
48 49 61 63 11 18 21 9 22 53 73 36 53 84 26 35 97 150 175 216 243 190 189 147 111 125 175 139 162 176 209 184 179 192 195 344 409 326 328 292 363 425 409 411
21 149 117 31 18 24 61 41 24 83 88 82 97 97 131 -34 86 114 289 286 192 167 108 208 194 155 164 185 130 154 246 288 272 251 239 294 402 430 335 305 387 440 545 461
70 90 115 101 61 37 25 46 76 95 110 86 10 48 43 41 114 168 160 135 78 64 109 163 118 92 128 220 202 142 151 161 211 253 300 373 417 497 471 453 495 578 439 354
76 102 98 80 52 40 63 69 107 131 135 170 77 18 -6 49 117 142 65 72 160 124 105 124 90 81 114 163 186 176 204 108 134 170 190 334 424 546 670 735 694 456 336 257
74 30 25 54 27 48 50 68 82 105 139 182 150 80 59 47 108 78 40 101 143 100 99 108 114 183 147 224 169 216 167 204 166 160 267 446 576 682 754 838 655 402 373 383
65 53 27 18 66 92 86 62 96 102 136 198 218 217 153 -33 8 91 75 89 100 82 87 122 140 144 243 212 255 162 158 209 254 269 320 474 517 541 555 499 478 497 416 299
75 42 52 20 11 51 35 23 52 140 189 169 185 275 7 15 64 -75 48 74 71 140 156 214 188 125 170 311 232 76 173 237 340 359 489 495 462 432 410 430 437 396 223 128
66 56 36 63 105 80 87 20 20 60 183 278 271 338 161 89 85 71 61 106 159 187 236 230 210 155 313 222 67 116 159 237 368 519 496 443 347 321 344 374 337 181 131 136
59 46 64 72 61 64 81 34 -13 37 132 145 208 148 120 95 56 80 104 219 227 259 244 137 152 268 228 128 127 127 177 234 412 461 427 365 285 280 279 256 267 154 93 96
70 99 59 45 45 67 57 60 67 93 78 99 101 103 78 63 59 144 242 297 316 264 257 213 215 167 153 146 122 218 166 229 372 402 382 365 410 311 186 286 136 111 121 132
165 213 201 200 70 57 102 86 107 34 102 108 80 104 115 96 127 229 344 289 163 187 134 139 120 103 108 136 159 258 177 260 340 467 477 322 235 240 255 135 113 129 122 148
89 244 279 209 159 169 140 131 57 132 85 118 153 129 90 135 275 272 191 46 212 209 103 113 142 110 88 190 320 275 259 360 401 407 311 240 129 108 158 143 130 128 152 158
81 218 260 231 213 208 104 48 3 90 127 145 127 99 167 210 205 176 87 189 167 122 118 89 112 104 158 235 243 213 199 242 256 249 127 58 119 169 179 146 146 152 168 166
71 239 231 215 184 190 134 14 132 155 221 96 233 288 157 146 149 137 175 115 102 86 106 119 100 205 257 221 216 184 173 164 93 88 182 200 216 174 151 141 158 161 154 131
203 222 218 211 178 158 354 163 0 154 236 257 151 86 154 173 154 187 95 97 110 125 87 124 216 211 179 179 135 110 84 81 139 206 209 208 167 143 136 171 151 135 120 134
205 178 200 208 248 257 175 83 181 227 226 88 84 93 141 148 176 111 58 84 101 101 168 201 222 165 141 142 139 123 99 120 263 211 185 144 125 134 149 140 118 120 125 142
149 189 257 308 320 305 118 181 184 73 88 62 46 85 44 66 117 85 122 140 118 151 226 238 153 140 189 165 170 140 239 227 172 145 133 118 127 139 122 108 110 104 109 121
227 166 237 295 293 201 109 64 99 8 84 80 81 82 113 164 124 118 72 149 160 274 218 153 148 204 160 160 220 194 176 151 132 109 113 126 120 105 106 96 93 95 106 119
248 156 212 163 262 149 115 64 68 118 84 74 116 216 204 114 98 100 156 190 265 246 180 165 204 176 166 171 185 165 137 118 98 101 114 106 96 92 91 89 85 102 102 98
257 222 255 220 202 141 128 122 98 84 100 224 152 177 39 102 122 121 215 245 252 177 169 168 149 143 148 193 168 161 124 101 97 99 96 87 108 96 83 73 92 95 106 71
324 247 244 212 126 129 148 122 91 114 131 162 182 122 115 118 159 211 201 198 166 141 103 105 133 130 158 143 131 112 117 121 106 92 95 93 85 78 77 80 81 92 63 12
Wind_Speed
18 20 38 26 28 20 7 10 14 49 33 13 23 21 10 21 35 34 33 33 33 28 32 38 18 18 20 22 23 25 26 27 28 34 37 37 37 37 37 35 33 34 37 36
16 29 31 19 16 22 4 15 29 9 30 15 21 23 8 29 36 36 35 36 40 40 41 39 33 23 22 23 24 26 29 32 32 37 40 39 40 39 37 36 36 36 41 42
19 28 22 15 15 30 4 35 9 25 29 5 49 16 19 25 31 34 36 35 38 40 45 44 35 32 27 25 26 30 30 33 32 31 38 40 41 47 48 44 42 38 42 40
31 34 17 10 16 54 7 57 18 8 21 29 14 17 26 21 24 25 30 37 43 45 47 48 44 41 40 32 30 32 36 36 39 35 38 43 46 48 46 44 45 45 39 39
35 30 23 7 35 25 10 53 24 14 13 37 33 27 45 19 19 19 26 37 42 49 51 55 55 53 47 47 36 36 39 39 42 43 40 41 47 49 49 51 51 45 39 41
35 38 35 43 27 10 14 60 51 28 31 36 39 30 37 42 29 29 33 42 49 53 57 56 56 56 59 53 44 43 43 45 46 46 47 45 47 50 55 53 54 49 46 45
49 27 38 43 49 46 62 66 48 44 33 32 55 47 30 27 30 32 47 52 52 52 52 57 66 65 61 63 60 55 50 53 52 54 54 52 50 50 53 56 55 50 46 47
48 44 40 47 43 42 45 48 43 49 49 48 63 42 48 43 37 42 42 46 44 45 51 63 61 58 63 65 69 67 68 68 61 56 54 53 49 49 51 52 49 46 46 47
51 39 50 41 40 42 48 49 47 44 38 48 40 44 59 44 39 44 52 49 48 58 60 65 60 61 64 68 73 76 74 76 71 71 70 54 49 46 48 47 42 43 46 49
45 48 41 37 36 17 27 46 46 40 49 58 52 56 43 57 69 82 69 61 69 68 74 66 63 63 70 81 81 89 78 73 75 76 65 53 48 45 43 41 41 43 51 58
49 41 43 57 36 53 40 41 34 39 50 58 65 49 61 75 66 60 76 77 74 63 63 65 60 65 74 80 90 94 87 77 71 69 61 54 48 43 39 39 39 51 54 61
44 44 51 52 33 37 37 41 46 55 59 54 65 58 43 54 50 92 83 73 72 72 71 73 76 79 81 85 93 102 84 73 67 66 57 51 46 41 37 33 43 48 53 57
56 47 62 58 39 37 63 70 65 66 58 55 65 64 56 80 76 78 87 84 80 75 75 84 90 83 85 92 103 92 84 75 66 56 52 50 45 36 34 44 49 55 48 59
49 46 50 55 58 72 79 86 84 75 69 73 61 75 75 82 88 86 80 79 81 81 87 92 85 90 88 95 97 84 88 75 58 51 48 44 38 35 44 47 50 49 54 61
45 52 55 59 66 77 79 63 64 63 66 68 77 79 87 92 93 84 83 85 92 96 90 92 97 96 94 95 90 86 87 68 53 48 43 45 46 46 46 43 45 53 60 67
47 61 62 68 71 72 77 82 66 64 67 67 74 85 88 95 89 89 90 95 99 92 92 102 90 96 95 92 86 86 85 67 52 49 53 56 49 44 42 44 51 59 62 68
57 60 65 76 72 84 85 60 63 63 80 75 87 98 99 92 83 89 100 99 92 91 98 95 93 94 88 93 84 87 84 66 58 57 54 46 42 38 44 50 57 62 69 70
57 56 59 75 77 80 56 77 82 74 67 76 90 86 76 82 94 100 93 86 93 96 100 99 91 89 89 89 86 85 74 60 55 50 45 37 39 45 51 56 63 66 70 74
46 48 61 68 75 79 73 63 73 89 83 74 72 81 91 101 107 92 75 91 91 93 90 88 84 90 89 88 85 75 63 55 49 42 40 45 48 51 57 61 64 69 73 72
57 55 56 69 82 89 70 80 73 70 80 63 81 109 90 100 111 106 91 91 91 87 82 85 87 87 93 83 71 59 52 46 50 47 46 49 53 58 61 64 68 68 68 71
63 64 66 66 71 71 71 72 68 70 72 95 93 91 107 98 88 92 96 94 85 84 85 87 86 94 82 67 59 57 56 54 46 48 52 55 58 62 63 65 67 69 71 71
71 74 71 68 74 90 52 70 79 93 86 98 100 93 93 92 89 96 97 87 87 86 91 86 90 81 69 60 57 55 54 50 50 55 59 60 63 64 65 67 70 68 69 66
65 53 70 68 74 77 85 95 85 95 102 102 89 92 85 100 101 96 92 91 87 87 87 86 79 69 62 57 54 55 53 55 58 59 61 64 65 65 66 70 68 67 65 69
57 59 72 88 77 83 87 87 85 85 92 89 80 89 102 93 92 96 92 90 89 88 89 78 69 63 59 51 48 52 53 57 60 63 65 64 65 66 67 66 63 64 67 68
67 77 82 93 89 87 80 78 86 83 86 77 85 82 81 86 94 92 91 91 89 86 76 66 62 58 56 48 50 53 56 60 63 65 64 63 66 68 66 62 62 63 63 72
66 76 83 96 90 91 97 91 85 92 74 88 80 83 86 91 91 91 91 89 82 74 65 60 57 55 51 51 53 53 57 61 64 65 64 66 65 63 62 63 62 63 68 76
Wind_Direction
125 110 55 80 72 80 145 210 243 304 31 261 255 253 221 47 28 26 22 19 14 19 9 355 16 6 357 349 346 339 336 336 336 331 328 325 324 324 323 325 325 328 327 327
123 77 61 90 91 60 215 241 276 236 271 263 259 249 200 39 32 29 29 30 16 11 6 3 6 7 356 349 344 339 334 330 326 327 323 321 322 320 315 318 315 316 319 319
96 54 70 95 82 36 256 29 265 266 275 355 7 19 101 47 46 39 33 27 20 13 4 3 7 360 355 346 340 337 331 326 321 318 322 318 316 318 320 316 316 312 311 312
33 24 80 116 64 343 42 342 261 287 20 20 11 30 22 59 40 42 25 15 8 3 360 357 357 355 352 341 337 333 332 326 322 316 313 314 312 312 312 311 309 302 302 308
12 24 45 107 20 32 32 283 262 270 351 3 19 20 18 25 16 26 20 6 360 353 350 346 345 348 349 345 341 334 331 328 323 319 310 306 309 309 311 315 315 315 315 316
357 3 10 358 17 15 11 295 297 17 14 10 12 12 358 2 5 6 2 355 353 350 347 345 343 344 345 348 345 339 332 326 323 319 315 307 303 307 313 310 313 311 313 316
335 8 3 358 357 359 344 338 354 355 1 1 356 352 344 336 349 351 342 343 346 346 345 344 339 340 343 344 344 340 331 325 321 319 316 308 305 304 305 309 311 308 310 312
335 346 359 354 3 1 357 4 2 347 346 340 335 349 358 359 350 345 348 346 343 351 351 346 345 345 344 346 345 342 335 327 324 317 311 309 303 303 308 311 313 314 312 311
333 347 347 1 3 3 355 351 352 347 347 342 353 349 346 359 3 359 346 342 352 346 344 345 344 344 345 345 342 337 331 330 328 324 320 312 309 309 312 317 318 317 317 316
342 337 352 1 1 4 8 356 355 354 347 339 343 340 348 344 337 333 338 342 341 341 341 343 342 341 341 340 339 338 336 331 331 330 330 327 323 320 321 322 321 321 319 317
340 345 345 343 2 350 358 356 353 343 338 335 334 339 341 332 333 342 339 333 334 340 342 341 343 342 340 338 337 336 334 332 331 331 331 329 327 325 324 321 320 321 320 318
350 343 339 337 344 356 358 355 349 336 331 325 322 317 345 353 352 334 336 338 339 338 339 342 340 336 337 337 336 335 334 333 332 332 334 332 332 330 329 329 328 326 322 318
338 340 334 341 352 352 336 331 332 329 330 324 322 324 333 328 326 329 331 333 336 337 338 337 335 337 337 336 335 336 336 334 333 334 335 334 333 333 333 330 327 324 321 322
338 336 334 329 328 327 326 322 322 324 321 320 313 314 326 329 330 332 335 339 337 336 334 335 339 337 337 335 335 335 335 334 334 333 334 335 335 333 332 330 330 327 326 323
338 330 328 325 325 324 323 325 325 320 318 316 319 320 327 330 330 333 335 335 333 332 335 336 335 335 335 335 336 337 335 334 334 333 333 335 337 333 330 333 332 330 327 325
332 324 324 320 324 325 324 324 319 319 321 319 321 321 328 329 332 332 336 335 333 335 335 334 335 335 334 335 335 338 337 336 336 335 333 332 330 334 335 333 332 329 328 328
319 320 323 320 326 323 323 330 331 326 325 322 322 325 329 333 336 335 332 331 334 336 336 335 334 334 334 337 338 336 338 340 336 334 332 334 333 333 333 333 332 331 330 330
318 321 322 320 326 322 334 332 327 325 327 324 324 326 333 335 333 333 335 337 335 335 333 333 334 334 336 335 335 335 336 335 336 335 334 334 338 337 336 334 332 332 333 332
333 328 324 323 320 318 325 334 336 328 325 329 333 335 330 330 328 331 338 336 333 333 334 333 334 336 336 335 335 336 336 336 339 339 346 344 343 339 336 334 335 335 334 334
335 336 327 324 320 321 333 329 331 330 321 339 336 326 329 332 328 328 335 334 333 335 335 336 335 336 334 335 339 343 346 346 346 347 348 346 343 339 337 338 337 337 337 336
330 329 323 320 320 323 330 332 338 328 331 328 335 333 329 328 331 328 331 333 334 335 336 337 337 336 338 342 345 345 345 345 355 353 349 344 342 340 340 340 339 339 338 338
323 324 323 325 322 322 344 335 330 325 324 329 327 328 326 328 331 332 333 334 335 336 336 336 336 338 343 346 347 347 353 357 354 348 345 343 343 343 342 341 341 341 341 343
317 321 320 319 317 317 318 318 323 323 324 326 326 329 331 329 329 332 334 336 336 337 337 337 337 341 344 346 351 349 351 349 347 346 344 344 344 344 344 343 344 344 347 346
318 321 313 316 318 316 319 320 322 324 326 327 329 330 330 331 334 334 334 336 337 337 337 339 342 344 345 349 353 352 350 349 347 345 345 345 345 345 346 346 348 348 348 349
313 319 316 311 315 318 320 322 323 324 325 328 328 330 332 333 332 334 335 336 337 337 340 343 344 346 348 352 350 350 349 348 346 346 347 347 347 346 347 349 350 351 352 344
314 310 312 311 316 316 316 321 322 326 329 329 330 332 333 333 335 336 335 335 337 339 342 345 346 348 351 350 349 349 349 349 348 347 347 347 347 348 349 349 350 350 345 328